COSMOS 511

Satellite information

Favourite Embed

Satellite Type and Status

PAYLOADIN ORBIT

Key statistics

Satellite COSMOS 511 at a glance.

Uptime

19511

Days in orbit

Revolutions

≈ 12.4

Per day

Orbit

LEO

Low Earth Orbit

Inclination

74.0

Latest

Satellite identification and parameters

Extended collection of information and parameters for COSMOS 511.

Object identification

Identified? True

Debris? False

Object name: COSMOS 511

International designator: 1972-057H

Object number (NORAD): 6124

Object ID (CCSDS): 6124

Country: COMMONWEALTH OF INDEPENDENT STATES (CIS)

Current information (Y/N): Y

RCS size: MEDIUM

Orbital parameters

Period: 116.422 minutes

Inclination: 74.0264 deg

SMA: 7897.996 km

Apoapsis: 1544.307 km

Periapsis: 1495.415 km

RAAN: 125.5211 deg

Eccentricy: 0.00309524

Argument of periapsis: 93.9492 deg

Mean anomaly: 25.906 deg

Mean motion: 12.36879571 rev/day

Mean motion (dot): -0.00000029 rev/day2

B* drag term: -0.00011026968 1/REarth

Two-line elements (TLE)

Creation date: Dec. 20, 2025, 3:40 a.m.

Reference frame: TEME

Reference center: EARTH

Epoch: Dec. 19, 2025, 8:35 p.m. UTC

TLE line 0: 0 COSMOS 511

TLE line 1: 1 06124U 72057H 25353.85784132 -.00000029 00000-0 -11027-3 0 9997

TLE line 2: 2 06124 74.0264 125.5211 0030952 93.9492 25.9060 12.36879571411940

Live tracking on map

Real-time ground track for satellite COSMOS 511.

In-orbit conjunctions

There are no conjunctions computed for COSMOS 511, at the moment. Check back to stay up to date, as we update our databases every day.

Go to all conjunctions

Associated space launch

Military communications satellites

COSMOS 511 was lifted into orbit during the mission ‘Kosmos-3M | Strela-1M 25-32’, on board a Kosmos-3M space rocket.

The launch took place on July 20, 1972, 6:10 p.m. from 132/2.

For more information about the launch, click the button.

Launch to space Kosmos-3M | Strela-1M 25-32
Kosmos-3M | Strela-1M 25-32

Agency: N/A

Status: Launch Successful

Launch date: July 20, 1972, 6:10 p.m. UTC

Rocket: Kosmos-3M

Launch pad: 132/2

Location: Plesetsk Cosmodrome, Russian Federation

...

Latest news about this satellite

There are no fresh news available about this satellite. Check back as we update our databases every day.


Newsletter sign-up

Weekly statistics, charts and insights to help you stay on top of the space industry.